Showing default

OPS 6026 (DMSP 4A F1), 2418

Orbit data source: Space-Track

OPS 6026 (DMSP 4A F1), 2418 is a payload satellite owned by USAF SSD (US) in SSO that was launched on Fri, 16 Sep 1966 UTC via a THOR BURNER 2 launch vehicle from the Air Force Western Test Range (AFWTR). Payload-class satellites include a variety of spacecraft equipped with specific instruments for various scientific and technological missions. These include communications satellites like Starlink; space stations such as the ISS; scientific satellites like the Hubble; Earth observation satellites from companies like Planet Labs, Umbra, and HawkEye 360; GPS; miniature CubeSats for education and research; and military/defense satellites.

Loading next visibility...
Identifier
2418, 1966-082A
Orbit
SSO
Last TLE update
7 hours ago
Origin
Manufacturer
RCA/East Windsor
Mission
Non-operational Defense Weather
Bus & Motor
DMSP BLOCK 4A, Unknown motor
Mass
79 kg wet, 79 kg dry
Launch date (UTC)
1966-09-16 (59 years ago)
Launch vehicle
THOR BURNER 2
Launch site
Air Force Western Test Range (AFWTR)
Object type
Payload
Rocket body
Debris
Shape & HBR
Oct Cyl, 0.8 m
Radar Cross Section
0.655 m², Medium (>0.1 m² and < 1m²)

Expand to show TLE details & history

TLE from 7 hours ago
0 OPS 6026 (DMSP 4A F1)
1 02418U 66082A   25182.89230523  .00000157  00000-0  55610-4 0  9991
2 02418  98.2950 338.9168 0115985   6.0651 354.1913 14.43558222 61745
Epoch: 2025-07-01T21:24Z
TLE epoch observation values (Epoch: 2025-07-01T21:24:55.171Z)
Latitude
-0.00002°
Longitude
97.50568°
Altitude
667.506 km
Speed
7.567 km/s
True Right ascension
22h 35m 40s
True Declination
0° 00' 00"
Sunlit
Object was in full shadow at epoch
Visualization orbit readout
Latitude
48.36298°
Longitude
88.39704°
Altitude
694.176 km
Speed
7.545 km/s
Apparent Right ascension
01h 03m 34s
Apparent Declination
9° 56' 26"
Sunlit
Object is in daylight
Visualization observer readout
Local Sidereal Time
15:58:47
Azimuth
49.198° ENE
Elevation
-25.752°
Doppler factor
1
Orbital elements
Apogee altitude
826.478 km
Perigee altitude
661.269 km
Semi-major axis
7,122.01 km
Eccentricity
0.0116
Inclination
98.295°
RAAN
338.9168°
Arg. of periapsis
6.0651°
True anomaly
Unknown
Mean anomaly
354.1913°
Eccentric anomaly
Unknown
Mean motion
3.6111 °/min
Orbital period
99.69 mins
BSTAR
0.00005561
Loading maneuver chart data...
Loading SW <> Apogee altitude chart data...
Loading historical data...
Loading historical data...
Loading historical data...
Loading historical data...
Loading historical data...
Loading historical data...
Loading historical data...
Other satellites on launch #82 in the year 1966 (1966-09-16 UTC)

OPS 6026 (DMSP 4A F1) Visibility forecast

Observer location: undefined°, undefined°

Span
Click to sort rows by Start time (UTC) header in descending order
Start Az.
Max El. time (UTC)
Max El. Az.
Max El.
End time (UTC)
End Az.
5 mins2025-07-02 09:13:24.751Z98.515° ESE2025-07-02 09:15:24.751Z70.384° E16.365°2025-07-02 09:18:24.751Z27.483° NE
7 mins2025-07-02 10:51:24.751Z197.081° SSW2025-07-02 10:54:24.751Z275.293° WNW35.447°2025-07-02 10:58:24.751Z334.242° NNW
8 mins2025-07-02 22:57:24.751Z29.317° NE2025-07-02 23:00:24.751Z85.659° E39.246°2025-07-02 23:05:24.751Z177.001° S
6 mins2025-07-03 00:36:24.751Z329.382° NNW2025-07-03 00:39:24.751Z288.424° WNW17.903°2025-07-03 00:42:24.751Z253.415° W
|